Time,TemperatureF,DewpointF,PressureIn,WindDirection,WindDirectionDegrees,WindSpeedMPH,WindSpeedGustMPH,Humidity,HourlyPrecipIn,Conditions,Clouds,dailyrainin,SoftwareType,DateUTC
2015-09-01 00:03:00,74.0,72.0,-100.00,SE,125,2.0,4.0,91,-99.99,,,-99.99,,2015-09-01 05:03:00,
2015-09-01 00:13:00,74.0,72.0,-100.00,ESE,105,3.0,4.0,91,-99.99,,,-99.99,,2015-09-01 05:13:00,
2015-09-01 00:23:00,74.0,72.0,-100.00,ESE,110,2.0,4.0,91,-99.99,,,-99.99,,2015-09-01 05:23:00,
2015-09-01 00:34:00,74.0,72.0,-100.00,SE,130,3.0,4.0,92,-99.99,,,-99.99,,2015-09-01 05:34:00,
2015-09-01 00:44:00,74.0,72.0,-100.00,SE,135,2.0,8.0,92,-99.99,,,-99.99,,2015-09-01 05:44:00,
2015-09-01 00:53:00,74.0,72.0,-100.00,ESE,110,4.0,6.0,92,-99.99,,,-99.99,,2015-09-01 05:53:00,
2015-09-01 01:03:00,74.0,71.0,-100.00,ESE,105,2.0,5.0,92,-99.99,,,-99.99,,2015-09-01 06:03:00,
2015-09-01 01:13:00,74.0,71.0,-100.00,ESE,110,2.0,4.0,92,-99.99,,,-99.99,,2015-09-01 06:13:00,
2015-09-01 01:23:00,73.0,71.0,-100.00,ESE,110,2.0,3.0,92,-99.99,,,-99.99,,2015-09-01 06:23:00,
2015-09-01 01:33:00,73.0,71.0,-100.00,ESE,115,2.0,3.0,92,-99.99,,,-99.99,,2015-09-01 06:33:00,
2015-09-01 01:44:00,73.0,71.0,-100.00,ESE,115,1.0,2.0,92,-99.99,,,-99.99,,2015-09-01 06:44:00,
2015-09-01 01:53:00,73.0,71.0,-100.00,ESE,115,1.0,2.0,92,-99.99,,,-99.99,,2015-09-01 06:53:00,
2015-09-01 02:04:00,73.0,70.0,-100.00,SE,135,2.0,2.0,92,-99.99,,,-99.99,,2015-09-01 07:04:00,
2015-09-01 02:13:00,72.0,70.0,-100.00,SE,140,3.0,5.0,92,-99.99,,,-99.99,,2015-09-01 07:13:00,
2015-09-01 02:23:00,72.0,70.0,-100.00,SE,140,3.0,5.0,92,-99.99,,,-99.99,,2015-09-01 07:23:00,
2015-09-01 02:33:00,72.0,70.0,-100.00,SE,135,3.0,4.0,92,-99.99,,,-99.99,,2015-09-01 07:33:00,
2015-09-01 02:44:00,72.0,70.0,-100.00,SE,125,3.0,6.0,92,-99.99,,,-99.99,,2015-09-01 07:44:00,
2015-09-01 03:03:00,72.0,69.0,-100.00,SE,125,2.0,4.0,92,-99.99,,,-99.99,,2015-09-01 08:03:00,
2015-09-01 03:13:00,71.0,69.0,-100.00,ESE,120,2.0,4.0,92,-99.99,,,-99.99,,2015-09-01 08:13:00,
2015-09-01 03:23:00,71.0,69.0,-100.00,ESE,120,2.0,3.0,92,-99.99,,,-99.99,,2015-09-01 08:23:00,
2015-09-01 03:34:00,71.0,69.0,-100.00,ESE,115,3.0,4.0,92,-99.99,,,-99.99,,2015-09-01 08:34:00,
2015-09-01 03:43:00,71.0,69.0,-100.00,ESE,115,2.0,4.0,92,-99.99,,,-99.99,,2015-09-01 08:43:00,
2015-09-01 03:53:00,71.0,69.0,-100.00,ESE,105,3.0,3.0,92,-99.99,,,-99.99,,2015-09-01 08:53:00,
2015-09-01 04:03:00,71.0,69.0,-100.00,ESE,110,2.0,4.0,92,-99.99,,,-99.99,,2015-09-01 09:03:00,
2015-09-01 04:13:00,71.0,69.0,-100.00,ESE,115,2.0,3.0,92,-99.99,,,-99.99,,2015-09-01 09:13:00,
2015-09-01 04:23:00,71.0,69.0,-100.00,ESE,115,2.0,3.0,92,-99.99,,,-99.99,,2015-09-01 09:23:00,
2015-09-01 04:33:00,71.0,69.0,-100.00,ESE,115,2.0,3.0,92,-99.99,,,-99.99,,2015-09-01 09:33:00,
2015-09-01 04:43:00,71.0,69.0,-100.00,ESE,120,2.0,4.0,92,-99.99,,,-99.99,,2015-09-01 09:43:00,
2015-09-01 04:54:00,71.0,69.0,-100.00,SE,125,3.0,4.0,92,-99.99,,,-99.99,,2015-09-01 09:54:00,
2015-09-01 05:03:00,71.0,69.0,-100.00,ESE,105,2.0,5.0,92,-99.99,,,-99.99,,2015-09-01 10:03:00,
2015-09-01 05:13:00,71.0,69.0,-100.00,ESE,110,3.0,4.0,92,-99.99,,,-99.99,,2015-09-01 10:13:00,
2015-09-01 05:23:00,71.0,68.0,-100.00,ESE,115,3.0,4.0,92,-99.99,,,-99.99,,2015-09-01 10:23:00,
2015-09-01 05:33:00,71.0,68.0,-100.00,ESE,110,3.0,4.0,92,-99.99,,,-99.99,,2015-09-01 10:33:00,
2015-09-01 05:43:00,71.0,68.0,-100.00,SSE,150,2.0,4.0,92,-99.99,,,-99.99,,2015-09-01 10:43:00,
2015-09-01 05:53:00,71.0,69.0,-100.00,ESE,115,4.0,5.0,92,-99.99,,,-99.99,,2015-09-01 10:53:00,
2015-09-01 06:03:00,71.0,69.0,-100.00,ESE,105,3.0,5.0,92,-99.99,,,-99.99,,2015-09-01 11:03:00,
2015-09-01 06:13:00,71.0,69.0,-100.00,SE,125,4.0,5.0,92,-99.99,,,-99.99,,2015-09-01 11:13:00,
2015-09-01 06:23:00,71.0,69.0,-100.00,ESE,115,4.0,6.0,92,-99.99,,,-99.99,,2015-09-01 11:23:00,
2015-09-01 06:34:00,71.0,69.0,-100.00,ESE,120,4.0,5.0,92,-99.99,,,-99.99,,2015-09-01 11:34:00,
2015-09-01 06:44:00,71.0,69.0,-100.00,ESE,120,2.0,4.0,92,-99.99,,,-99.99,,2015-09-01 11:44:00,
2015-09-01 07:03:00,71.0,69.0,-100.00,ESE,110,3.0,4.0,92,-99.99,,,-99.99,,2015-09-01 12:03:00,
2015-09-01 07:14:00,71.0,69.0,-100.00,ESE,115,2.0,4.0,92,-99.99,,,-99.99,,2015-09-01 12:14:00,
2015-09-01 07:23:00,71.0,69.0,-100.00,ESE,120,3.0,4.0,92,-99.99,,,-99.99,,2015-09-01 12:23:00,
2015-09-01 07:34:00,72.0,70.0,-100.00,ESE,110,3.0,4.0,92,-99.99,,,-99.99,,2015-09-01 12:34:00,
2015-09-01 07:44:00,72.0,70.0,-100.00,ESE,105,3.0,4.0,92,-99.99,,,-99.99,,2015-09-01 12:44:00,
2015-09-01 07:54:00,73.0,71.0,-100.00,ESE,115,4.0,5.0,92,-99.99,,,-99.99,,2015-09-01 12:54:00,
2015-09-01 08:03:00,73.0,71.0,-100.00,ESE,115,3.0,5.0,92,-99.99,,,-99.99,,2015-09-01 13:03:00,
2015-09-01 08:13:00,74.0,71.0,-100.00,ESE,120,3.0,5.0,91,-99.99,,,-99.99,,2015-09-01 13:13:00,
2015-09-01 08:23:00,75.0,71.0,-100.00,ESE,120,3.0,4.0,88,-99.99,,,-99.99,,2015-09-01 13:23:00,
2015-09-01 08:34:00,76.0,71.0,-100.00,East,100,2.0,6.0,86,-99.99,,,-99.99,,2015-09-01 13:34:00,
2015-09-01 08:43:00,77.0,71.0,-100.00,SE,125,1.0,6.0,83,-99.99,,,-99.99,,2015-09-01 13:43:00,
2015-09-01 08:53:00,78.0,71.0,-100.00,SE,140,2.0,5.0,80,-99.99,,,-99.99,,2015-09-01 13:53:00,
2015-09-01 09:03:00,79.0,71.0,-100.00,SSE,160,4.0,7.0,75,-99.99,,,-99.99,,2015-09-01 14:03:00,
2015-09-01 09:13:00,80.0,71.0,-100.00,SSE,150,3.0,6.0,74,-99.99,,,-99.99,,2015-09-01 14:13:00,
2015-09-01 09:23:00,81.0,71.0,-100.00,SSE,165,2.0,6.0,71,-99.99,,,-99.99,,2015-09-01 14:23:00,
2015-09-01 09:33:00,81.0,71.0,-100.00,South,180,4.0,6.0,69,-99.99,,,-99.99,,2015-09-01 14:33:00,
2015-09-01 09:43:00,82.0,70.0,-100.00,SSW,200,4.0,7.0,67,-99.99,,,-99.99,,2015-09-01 14:43:00,
2015-09-01 09:53:00,82.0,71.0,-100.00,South,190,1.0,11.0,68,-99.99,,,-99.99,,2015-09-01 14:53:00,
2015-09-01 10:03:00,83.0,70.0,-100.00,WSW,245,3.0,7.0,65,-99.99,,,-99.99,,2015-09-01 15:03:00,
2015-09-01 10:13:00,83.0,70.0,-100.00,South,185,5.0,9.0,64,-99.99,,,-99.99,,2015-09-01 15:13:00,
2015-09-01 10:23:00,83.0,70.0,-100.00,SSW,200,7.0,12.0,64,-99.99,,,-99.99,,2015-09-01 15:23:00,
2015-09-01 10:33:00,83.0,70.0,-100.00,SW,220,6.0,12.0,63,-99.99,,,-99.99,,2015-09-01 15:33:00,
2015-09-01 10:44:00,83.0,69.0,-100.00,SW,220,9.0,13.0,63,-99.99,,,-99.99,,2015-09-01 15:44:00,
2015-09-01 10:53:00,84.0,69.0,-100.00,WSW,245,6.0,9.0,61,-99.99,,,-99.99,,2015-09-01 15:53:00,
2015-09-01 11:03:00,85.0,70.0,-100.00,SW,220,6.0,14.0,60,-99.99,,,-99.99,,2015-09-01 16:03:00,
2015-09-01 11:13:00,84.0,69.0,-100.00,SSW,210,9.0,12.0,59,-99.99,,,-99.99,,2015-09-01 16:13:00,
2015-09-01 11:24:00,85.0,69.0,-100.00,SW,225,7.0,14.0,58,-99.99,,,-99.99,,2015-09-01 16:24:00,
2015-09-01 11:33:00,86.0,69.0,-100.00,SSW,205,7.0,14.0,57,-99.99,,,-99.99,,2015-09-01 16:33:00,
2015-09-01 11:43:00,87.0,69.0,-100.00,South,185,7.0,12.0,55,-99.99,,,-99.99,,2015-09-01 16:43:00,
2015-09-01 11:53:00,87.0,68.0,-100.00,SW,230,7.0,12.0,52,-99.99,,,-99.99,,2015-09-01 16:53:00,
2015-09-01 12:03:00,88.0,68.0,-100.00,SW,220,5.0,12.0,52,-99.99,,,-99.99,,2015-09-01 17:03:00,